Miscellaneous Local Product
Issued by NWS Hastings, NE

Home | Current Version | Previous Version | Graphics & Text | Print | Product List | Glossary On
Versions: 1 2 3 4 5 6 7 8 9 10 11 12 13 14 15 16 17 18 19 20 21 22 23 24 25 26 27 28 29 30 31 32 33 34 35 36 37 38 39 40 41 42 43 44 45 46 47 48 49 50
530
AXUS43 KGID 141502
MISGRI

GID CWA HOURLY WEATHER ROUNDUP
NATIONAL WEATHER SERVICE HASTINGS NE
900 AM CST THU DEC 14 2017

NOTE: "FAIR" INDICATES FEW OR NO CLOUDS BELOW 12,000 FEET WITH NO
SIGNIFICANT WEATHER AND/OR OBSTRUCTIONS TO VISIBILITY.

...SOUTH CENTRAL NEBRASKA...

CITY           SKY/WX    TMP DP  RH WIND       PRES   REMARKS
GRAND ISLAND   MOCLDY    31  26  82 W8        30.08R WCI  23
KEARNEY        MIX PCPN  35  29  78 NW7       30.08S WCI  29
HASTINGS       CLOUDY    34  25  69 W10       30.08S WCI  26
ORD            LGT RAIN  36  33  89 NW12      30.04R WCI  28
YORK           MOSUNNY   30  28  93 CALM      30.07S
AURORA         CLOUDY    31  26  83 W8        30.07S WCI  23
LEXINGTON      CLOUDY    38  30  72 NW10      30.09R WCI  31
HOLDREGE       CLOUDY    35  27  70 W7        30.09R WCI  29
HEBRON         CLOUDY    34  27  76 W3        30.10S

...NEBRASKA PANHANDLE...

CITY           SKY/WX    TMP DP  RH WIND       PRES   REMARKS
CHADRON        MOCLDY    35  23  61 NW20G25   30.14R WCI  24
ALLIANCE       CLOUDY    36  22  56 NW32G43   30.10R WCI  23
SCOTTSBLUFF    CLOUDY    38  24  57 NW20G32   30.15R WCI  28
SIDNEY         MOCLDY    30  23  75 NW8       30.14R WCI  22

...WESTERN AND NORTH CENTRAL NEBRASKA...

CITY           SKY/WX    TMP DP  RH WIND       PRES   REMARKS
VALENTINE      LGT SNOW  35  32  88 NW14      30.06R FOG     WCI  26
AINSWORTH      LGT SNOW  33  33 100 NW10      30.04R VSB 1   WCI  25
ONEILL         LGT SNOW  33  32  96 NW9       30.04R WCI  25
BROKEN BOW     FLURRIES  36  33  89 NW12G22   30.05S WCI  28
IMPERIAL       CLOUDY    36  24  62 NW8       30.12R WCI  30
NORTH PLATTE   CLOUDY    38  26  62 W9        30.09R WCI  31
MCCOOK         CLOUDY    38  28  67 W9        30.11F WCI  31

...EASTERN NEBRASKA...

CITY           SKY/WX    TMP DP  RH WIND       PRES   REMARKS
NORFOLK        CLEAR     33  26  75 W8        30.02R WCI  26
SO SIOUX CITY  CLOUDY    30  24  78 SE6       30.05R WCI  24
TEKAMAH        MOSUNNY   32  24  72 CALM      30.05S
COLUMBUS       CLEAR     31  25  78 W7        30.06S WCI  24
ALBION         PTCLDY    30  26  85 NW3       30.05R
OMAHA EPPLEY   CLOUDY    34  27  75 CALM      30.07R
OFFUTT AFB     CLOUDY    35  26  69 CALM      30.06S
MILLARD        CLOUDY    37  29  74 CALM      30.07R
LINCOLN        CLOUDY    36  26  67 W6        30.09R WCI  31
NEBRASKA CITY  CLOUDY    35  28  76 NW5       30.08S WCI  31
BEATRICE       CLOUDY    35  28  74 NW8       30.08S WCI  28
FALLS CITY     CLOUDY    36  26  67 NW5       30.08R WCI  32

...NORTHERN KANSAS...

CITY           SKY/WX    TMP DP  RH WIND       PRES   REMARKS
GOODLAND       PTCLDY    33  29  85 W13       30.14S WCI  24
HILL CITY      PTCLDY    39  29  67 NW13      30.13S WCI  31
NORTON         CLOUDY    39  25  56 W13       30.11S WCI  32
PHILLIPSBURG   CLEAR     39  27  60 W9        30.12S WCI  33
SMITH CENTER   PTSUNNY   28  25  86 CALM      30.12R
HAYS           MOSUNNY   35  23  61 W7        30.13S WCI  29
RUSSELL        MOSUNNY   32  25  75 W6        30.12R WCI  26
CONCORDIA      CLOUDY    32  26  78 W7        30.11R WCI  26
SALINA         MOSUNNY   35  27  72 NW8       30.14S WCI  29
TOPEKA         CLOUDY    37  29  72 NW3       30.10R



USA.gov is the U.S. government's official web portal to all federal, state and local government web resources and services.